Regional Weather Roundup
Issued by NWS

Home | Current Version | Previous Version | Graphics & Text | Print | Product List | Glossary On
Versions: 1 2 3 4 5 6 7 8 9 10 11 12 13 14 15 16 17 18 19 20 21 22 23 24 25 26 27 28 29 30 31 32 33 34 35 36 37 38 39 40 41 42 43 44 45 46 47 48 49 50
000
ASUS43 KMKX 280400
RWRWI

WISCONSIN REGIONAL WEATHER ROUNDUP
NATIONAL WEATHER SERVICE MILWAUKEE/SULLIVAN WI
1100 PM CDT WED AUG 27 2014

NOTE: "FAIR" INDICATES FEW OR NO CLOUDS BELOW 12,000 FEET WITH NO
SIGNIFICANT WEATHER AND/OR OBSTRUCTIONS TO VISIBILITY.

WIZ001-002-006>008-014>016-023>028-280500-
NORTHWEST WISCONSIN

CITY           SKY/WX    TMP DP  RH WIND       PRES   REMARKS
SUPERIOR ARPT  PTCLDY    54  53  94 SW3       30.13F
ASHLAND        CLEAR     51  50  96 SW3       30.16R
HAYWARD        CLEAR     53  52  96 CALM      30.17S
SIREN          CLEAR     55  54  97 CALM      30.16R
RICE LAKE      CLEAR     56  55  94 CALM      30.18R
LADYSMITH      CLEAR     57  52  82 NE3       30.19R
EAU CLAIRE     NOT AVBL
MENOMONIE      CLEAR     61  57  86 CALM      30.16R
NEW RICHMOND   CLEAR     60  57  91 NE5       30.16S
OSCEOLA        CLOUDY    62  60  96 E3        30.18R
$$

WIZ003>005-009-010-017-018-280500-
NORTH CENTRAL WISCONSIN

CITY           SKY/WX    TMP DP  RH WIND       PRES   REMARKS
WOODRUFF       CLEAR     52  49  89 CALM      30.19R
RHINELANDER    CLEAR     52  48  86 CALM      30.19R
EAGLE RIVER    CLEAR     48  46  95 CALM      30.18S
LAND O LAKES   CLEAR     45  44  97 CALM      30.20S
PHILLIPS       CLEAR     52  50  94 CALM      30.17S
TOMAHAWK       CLEAR     52  48  89 CALM      30.18S
MEDFORD        CLEAR     51  51  99 CALM      30.17S
MERRILL        CLEAR     51  51  99 CALM      30.18R
$$

WIZ029-030-035-036-043>047-280500-
CENTRAL WISCONSIN

CITY           SKY/WX    TMP DP  RH WIND       PRES   REMARKS
WAUSAU         CLEAR     58  53  84 NW3       30.15R
MOSINEE        CLEAR     55  52  88 CALM      30.17R
MARSHFIELD     CLEAR     59  53  80 N5        30.16R
STEVENS POINT  CLEAR     55  53  92 CALM      30.16R
WAUPACA        PTCLDY    63  61  93 CALM      30.15R
WAUTOMA        NOT AVBL
WISC RAPIDS    CLEAR     58  56  93 CALM      30.16R
CAMP DOUGLAS   NOT AVBL
$$

WIZ011>013-019>022-031-037>040-048>050-280500-
NORTHEAST WISCONSIN

CITY           SKY/WX    TMP DP  RH WIND       PRES   REMARKS
ANTIGO         CLEAR     53  51  95 N8        30.17S
STURGEON BAY   CLEAR     59  54  82 SE5       30.16S
GREEN BAY      CLEAR     58  56  93 S3        30.15S
MANITOWOC      NOT AVBL
APPLETON       MOCLDY    63  57  82 SE7       30.15S
CLINTONVILLE   MOCLDY    61  59  94 CALM      30.14R
OSHKOSH        CLEAR     61  58  90 S6        30.15R
$$

WIZ032>034-041-042-053>061-280500-
SOUTHWEST WISCONSIN

CITY           SKY/WX    TMP DP  RH WIND       PRES   REMARKS
LA CROSSE      CLEAR     65  61  87 SE3       30.14R
SPARTA         CLEAR     58  57  94 CALM      30.16R
VIROQUA        FAIR      60  60 100 CALM      30.17R
BOSCOBEL       PTCLDY    61  59  93 CALM      30.15R
PRAIRIE DU CHI PTCLDY    63  60  90 CALM      30.13F
PLATTEVILLE    FAIR      65  61  87 E5        30.15F
$$

WIZ056-057-062-063-064-067-068-280500-
SOUTH CENTRAL WISCONSIN

CITY           SKY/WX    TMP DP  RH WIND       PRES   REMARKS
BARABOO/DELLS  CLEAR     61  59  92 CALM      30.15R
LONE ROCK      NOT AVBL
WATERTOWN      CLEAR     62  62 100 CALM      30.15R
MADISON        CLEAR     61  59  93 CALM      30.14S
MIDDLETON      FAIR      61  61  98 CALM      30.15S
MONROE         PTCLDY    66  61  82 E3        30.14S
JANESVILLE     CLEAR     64  63  94 E3        30.14S
$$

WIZ051-052-058>065-066-070>072-280500-
SOUTHEAST WISCONSIN

CITY           SKY/WX    TMP DP  RH WIND       PRES   REMARKS
MILWAUKEE      PTCLDY    64  56  75 E5        30.15S
WAUKESHA       CLEAR     59  57  94 CALM      30.17R
MILWAUKEE/TIMM CLEAR     63  54  72 CALM      30.16R
RACINE         CLEAR     65  55  70 E5        30.16S
BURLINGTON     CLEAR     58  58  97 CALM      30.16R
KENOSHA        CLEAR     60  58  92 NE3       30.15S
FOND DU LAC    CLEAR     61  56  83 S6        30.16R
SHEBOYGAN      CLEAR     56  54  93 CALM      30.16R
WEST BEND      CLEAR     57  55  94 CALM      30.16R FOG
JUNEAU         CLEAR     61  59  93 SE7       30.16R
$$

LSZ147-162-280500-
LAKE SUPERIOR

STATION/POSITION TIME  TEMP    WIND        PRES    WAVE
                       AIR SEA DIR/SP/G            HT/PER
                 (UTC) (F)     (DEG/KT/KT) (MB)    (FT/S)
W MID LAKE BUOY  0250   57 55  170/  4/  4 1021.2F   0
DEVILS ISLAND    0300   62     150/  8/ 10 1020.7F
PORT WING        0300   59     150/  3/  6 1020.3
SAXON HARBOR     0300   56     180/  5/  7 1021.0S
$$

LMZ867-665-643>646-280500-
LAKE MICHIGAN

STATION/POSITION TIME  TEMP    WIND        PRES    WAVE
                       AIR SEA DIR/SP/G            HT/PER
                 (UTC) (F)     (DEG/KT/KT) (MB)    (FT/S)
N MID LAKE BUOY  0250   64 66   50/ 10/ 12 1021.0F   0
NORTHPORT PIER   0300   64     100/  8/ 10 1021.0S
SISTER BAY       0341   60      CALM  /  3   N/A
KEWAUNEE LAKESHO 0300   64     170/  4/  5 1019.9R
SHEBOYGAN LAKESH 0300   66 68   90/  7/  8 1021.2R
ATWATER BUOY     0300   68     100/  8/ 10 1021.9R
MILWAUKEE LAKESH 0300   67      90/  9/ 10   N/A
S MID LAKE BUOY  0250   68 69   40/ 12/ 14 1020.5R   2/ 3
KENOSHA   LAKESH 0300   69      70/  8/ 10 1020.7R
$$

TC  - TEMPERATURE IN CELSIUS
VSB - VISIBILITY IN STATUTE MILES
WCI - WIND CHILL INDEX
HX  - HEAT INDEX



USA.gov is the U.S. government's official web portal to all federal, state and local government web resources and services.